User: anonymous   Login
Location: Unspecified
(0.0000°N, 0.0000°E)
Time: 17:13:45
(UTC+00:00)
Language:

Vela 4A - Orbit

View from above orbital plane
View from above orbital plane
View from above satellite
View from above satellite

Ground track
Ground track

The orbit data is extracted from the following two-line orbital elements,

1  2765U 67040A   21286.06817255 -.00000893  00000-0  00000+0 0  9990
2  2765  31.3392  39.2989 4537680 216.5552 358.2142  0.21505924 42720
Epoch (UTC): 13 October 2021 01:38:10
Eccentricity: 0.4537680
inclination: 31.3392°
perigee height: 57901 km
apogee height: 164697 km
right ascension of ascending node: 39.2989°
argument of perigee: 216.5552°
revolutions per day: 0.21505924
mean anomaly at epoch: 358.2142°
orbit number at epoch: 4272

The dashed part of the orbit path shows where the satellite is in the earth's shadow,  

DLR